CAPE
1716 2194 2621 2642 2970 3125 3271 3620 3867 3910 4100 4224 4144 4019 3944 3921 3818 3660 3389 3254 3442 3256 3081 3265 3230 2761 2560 2414 1871 2074 2017 1973 2150 1991 2106 2148 2292 1592 1382 1370 1355 1717 2001 1754 1760 2512 2042 1024 1394 1039 1519 1680 2000 2302 2394 2476 2485 2544 2640 2789 2268 2069 1904
1776 2256 2520 2610 2938 3195 3426 3677 3849 4020 3992 4242 4207 4012 4059 4016 3974 3601 3278 3242 3218 3386 3261 3120 3006 2777 2670 2688 2546 2283 2268 2522 2194 2476 2393 2433 2097 1622 1586 1644 1789 1487 2025 2293 1803 2100 1510 990 1135 1291 1565 1779 1929 2220 2382 2248 2348 2117 1927 2430 2064 1944 2034
2220 2534 2614 2489 2646 2970 3367 3351 3493 3625 4054 3989 3937 4099 4069 4151 4031 3547 3033 3184 3332 3408 3138 3082 2856 2606 2549 2641 2364 2290 2181 2040 2246 2216 2000 1990 1902 1674 1530 1695 1584 1798 2109 2024 1963 1472 1341 1427 1577 1630 1610 1852 1698 2087 1927 1816 1772 1471 1430 2131 1969 1792 2108
2630 2802 3089 3208 3195 3136 3157 3331 3315 3391 3412 3786 3886 4076 4129 4313 4152 3531 3087 3266 3301 3536 3024 2615 2208 2081 2110 2259 2135 2263 2350 2117 1937 1659 1774 1768 1691 1498 1614 1481 1808 2071 1915 2032 2104 1804 1831 1089 1375 1587 1979 1992 1838 1956 1931 1327 1260 1250 1286 1914 1876 1717 2039
2386 2616 2685 2623 2584 2820 2857 2853 2938 3482 3358 3476 3920 4117 4141 4333 4171 3596 3249 3166 3169 3539 3226 2572 2170 1968 1982 2111 1975 1681 1957 1861 1821 1631 1527 1789 1532 1448 1730 1226 1507 1470 2099 2292 2140 2197 1891 1725 1510 1087 1749 2063 2067 1885 1790 1359 1307 1349 1362 1827 1775 1415 1736
2445 2596 2728 2426 2319 2454 2646 2794 2881 3176 3720 3741 3864 4060 3887 4064 4093 3612 3339 3229 3135 3356 2761 2443 2200 1984 2070 1843 1784 1939 1963 1795 1936 2044 1830 1701 1499 1817 1295 1299 1605 1774 2000 2157 1663 1285 1678 2027 1527 908 1071 1912 2114 1674 1667 1648 1477 1631 1712 1840 1690 1426 1483
2796 2620 2577 2304 2195 2340 2521 2800 2888 3238 3508 3704 3788 3659 3755 3630 3791 3755 3360 3016 3111 3450 3089 2628 2178 2049 1932 1900 1838 1690 1846 1872 1869 1752 1668 1582 1511 1489 1449 1691 1968 2038 1994 2192 2132 1780 1937 1655 1520 1344 1312 1673 1830 1655 1720 1815 1630 1584 1830 2022 1778 1647 1738
3073 2855 2434 2099 2071 2315 2753 3141 2966 3461 3540 3699 3872 3911 3996 3628 3278 3629 3375 3215 2894 3026 3642 2905 2261 2362 2011 1829 1640 1568 1844 1786 2012 1934 1707 1537 1354 1205 1471 1846 1986 1869 2057 2034 2522 2275 1980 2408 1861 1272 1275 1264 1916 1932 1855 1816 1950 1727 1708 1995 2178 1811 1666
3410 3397 3181 2567 2471 2709 3023 3520 3869 3798 4027 3992 4119 4063 4031 4070 3582 3317 3418 3274 3136 3057 3132 2960 2820 2527 2315 1853 1850 1914 1962 2246 1992 1838 1638 1505 1285 1268 1275 1767 2042 2192 2244 2186 2251 2402 2304 2242 2578 2199 2297 2596 2291 2432 2220 2486 2432 2300 2121 2122 2233 2161 1811
3465 3532 3568 3413 3397 3150 3419 3681 4112 4569 4737 4609 4646 4386 4230 4206 4214 3721 3640 3289 3245 2926 2989 3170 2935 3137 2826 2705 2500 2476 2560 2502 2119 1844 1595 1402 1714 1557 1478 1475 1898 2250 2279 2206 2252 2319 2242 2336 2227 1827 2055 2889 2734 2757 2650 2546 2701 2627 2599 2580 2551 2505 2277
2718 3022 3300 3598 3929 4097 4096 3908 3825 3753 3908 4616 4506 4141 4014 4164 4306 4434 4218 3880 3671 3686 2901 3104 2907 2793 3184 3054 2783 2428 2339 2397 2035 1918 1745 2055 2134 1963 1669 1358 1429 1980 2154 2315 2354 2403 2456 2298 2314 1790 2308 3086 2718 2535 2636 2584 2575 2806 2753 2582 2487 2524 2351
2160 2360 2550 2687 2915 3095 3319 3677 3788 3950 4118 3963 3626 3988 4179 4116 3776 3530 3593 3514 3343 3644 3390 3223 2930 2894 2934 3104 2766 2504 2358 2080 2020 1745 1390 1468 1920 1936 1714 1785 1634 1762 1811 2164 2396 2594 2697 2489 2565 2383 1856 2524 1962 2187 2358 2491 2520 2642 2640 2515 2491 2514 2599
1676 1920 2201 2296 2396 2466 2544 2618 2749 2778 2888 3243 3801 3757 3801 3863 3368 3668 3829 3748 3517 3754 3698 3369 3198 3159 2978 3240 3115 2604 2367 2163 2032 1868 1745 1591 1549 1873 2131 2028 1846 1620 1763 2006 2172 2387 2529 2809 2088 1888 1986 2032 2004 2644 2433 2477 2615 2559 2642 2626 2467 2336 2305
1297 1430 1465 1664 2044 2241 2267 2383 2530 2576 2627 2824 2915 3116 3114 3184 3436 3558 3538 3464 3579 3492 3468 3380 3284 3308 3263 3209 2659 2350 2312 2019 2023 2059 2175 1968 1730 2128 2200 2096 1966 1660 1788 1832 2113 2218 2393 2316 2120 2314 2999 2995 2975 2936 2827 2736 2743 2625 2501 2525 2478 2425 2256
1243 1211 1254 1223 1387 1705 2352 2392 2214 2287 2536 2712 2846 2892 2960 3319 3552 3373 3253 3473 3232 3196 3251 3406 3424 3544 3463 3643 2444 2283 2148 2119 2108 2086 2466 2577 2543 2537 2178 1867 1706 1641 1684 1766 1961 2172 2421 2375 2477 2360 2653 2708 2815 2846 2786 2853 3016 3062 2781 2499 2678 2662 2536
762 772 941 1069 1184 1210 1262 1882 2551 2191 2096 2333 2459 2659 2710 2944 3210 3412 3375 3238 3145 2961 3016 3022 3169 3481 3661 3759 3394 2655 2738 2528 2368 2734 2863 2900 2710 2789 2362 2092 1776 1774 1665 1768 1966 2183 2313 2484 2401 2487 2274 2479 2864 2853 2894 2572 2206 1985 2200 2349 2636 2702 2715
705 700 629 613 621 696 751 772 1839 2611 2136 1849 2251 2263 2610 2774 2878 2910 3082 3290 3163 2969 2769 2722 2716 3230 3378 3468 3777 3238 3042 2782 3507 3462 3324 3367 3073 2843 2593 2201 2038 1982 1946 1879 2105 2316 2425 2522 2549 2457 2481 2030 2362 2281 2429 2287 1695 1708 1434 1629 1724 2661 3221
678 619 623 586 508 456 387 732 1015 1794 2468 1572 1358 1584 2083 2653 2764 2842 2929 3142 3176 2747 2810 2783 2916 2770 3097 3145 3235 3412 3613 3794 3847 3784 3529 3474 3512 2994 2868 2756 2645 2735 2592 2469 2492 2658 2619 2743 2856 2814 2652 2623 2749 2596 2457 2441 2123 1645 1442 1510 1572 1741 2613
670 688 660 576 571 500 425 588 1109 998 1422 2277 1496 1290 1430 2151 2341 2511 2838 3017 3032 2976 2848 2835 2960 3011 3104 3368 3400 3516 3454 3541 3624 3201 3395 3062 2836 3621 3323 3045 3038 3015 3050 3000 2963 2840 2876 2838 2957 3030 2927 2773 2776 2883 2638 2347 1880 1831 1653 1611 1661 1750 1812
98 180 188 212 270 380 368 357 662 572 731 1071 1985 1742 1690 1099 1442 2311 2554 2752 2882 2983 3070 3070 3177 3260 3213 3360 3578 3536 3661 3308 3475 3319 3269 3432 3464 3508 2777 2750 2845 2846 2948 2887 2746 2908 2990 2972 3109 3218 3268 2845 2749 2775 2610 2486 2426 1970 1799 1747 1807 1842 1789
148 115 184 231 126 104 80 21 72 245 466 520 941 2053 1778 1005 507 1393 2008 2375 2515 2505 2768 2991 3090 3401 3357 3293 3423 3799 3937 3678 3558 3525 3615 3499 3422 3173 3411 2901 2918 2954 2998 2922 3001 2928 2984 3321 3496 3647 3693 3180 2821 2725 2706 2538 2137 2077 1983 1862 1817 1788 1806
9 45 49 56 57 48 17 0 30 84 194 244 174 42 1406 1457 999 797 819 1791 2003 2154 2487 2620 2983 3214 3108 2865 3488 3733 3511 3133 3184 4307 3982 3600 3026 2686 2834 2956 2926 3322 3205 3064 2947 2908 3102 3406 3589 3595 3434 3510 3314 3097 2853 2846 2359 2265 2131 2016 1978 2013 1996
0 0 0 6 0 2 8 12 9 11 63 86 137 70 207 1527 1092 690 735 766 1346 1711 1977 2089 2436 2835 3221 3190 2846 3548 3347 3269 3303 3103 3843 4329 3801 3434 3187 3083 2926 3094 3938 3814 3320 3051 3015 3213 3772 3650 3693 3668 3322 2959 2838 3076 2771 2294 2290 2202 2172 2215 2074
0 0 0 0 0 0 0 2 1 2 4 21 108 203 104 654 1315 840 534 410 577 1061 1409 1269 1651 2036 2285 2660 3085 3312 3300 3060 3350 2976 2837 3740 4502 3986 3686 3471 3355 3108 3329 3262 2942 2766 3019 3058 3088 3035 3139 3184 3632 3380 3128 3160 2858 2309 2295 2308 2287 2237 2195
0 0 0 0 0 0 0 0 6 19 20 35 24 36 60 220 916 945 560 433 270 454 891 918 879 1030 1589 2430 2910 3090 3174 3380 3061 3096 3239 2894 2913 3391 3974 3884 3438 3319 3253 2977 2665 3038 2966 2790 2790 2880 2914 3132 3130 2858 2957 3226 3091 2468 2199 2079 2093 2092 2293
1 1 0 0 0 0 0 3 16 6 1 0 6 31 115 202 672 815 588 526 570 294 440 525 714 1276 1667 1856 2170 2707 2325 2599 2672 2555 3042 2878 3132 3022 2950 3268 3323 3289 3229 3113 2684 2825 2954 2989 2775 2903 2801 2978 3444 3409 3158 3066 3207 3539 2142 2004 1873 1821 2079
0 0 3 2 6 33 20 10 5 7 6 12 64 130 184 249 356 639 734 544 395 475 680 527 600 1256 1734 1884 1955 2308 2708 3177 2830 2229 2332 2583 3046 3160 3275 3335 3312 2827 2974 3004 3079 2696 2443 3037 2953 2922 2882 2854 3192 3190 3244 3156 3087 3178 2635 2435 2222 2078 1982
0 1 0 0 2 6 0 0 3 54 58 46 32 105 313 433 416 385 550 624 457 351 671 772 637 878 1270 1476 2000 1928 2088 2715 2110 2280 2259 2295 2537 2743 2964 3243 3292 3111 3162 3107 2738 2506 2971 2949 2928 2991 2933 2802 2836 2867 2931 2877 2906 3224 3039 2604 2376 2197 2086
7 1 0 0 0 0 0 0 0 0 75 122 136 152 209 353 512 537 541 599 586 533 661 739 689 771 877 1020 1450 2087 2090 2411 2510 1961 2058 2123 2174 2447 2545 2683 3010 3219 3139 2851 2746 2955 2792 3146 3262 3290 3344 3037 2827 2873 2927 3008 3119 2796 3046 2471 2347 2122 1980
2 0 0 0 0 0 0 3 10 21 50 70 161 240 318 391 506 551 575 745 746 695 686 682 587 603 700 748 914 1238 1578 2084 2363 1979 1932 2008 2092 2260 2440 2681 2846 3023 3134 3047 3028 2574 2170 3183 3403 2643 2449 2403 2280 2686 2814 2927 3101 2768 2531 2815 2213 2106 2034
0 0 0 0 0 1 6 7 24 127 216 264 278 360 479 588 618 648 657 747 799 873 772 674 628 564 540 617 730 826 1084 1653 2538 2353 1887 1883 1915 1982 2195 2498 2540 2628 2899 2713 2653 2832 2410 2255 2069 2237 2181 2285 2091 2396 2560 2719 2673 2690 2711 2213 2073 1933 1846
0 0 0 0 4 9 32 71 166 242 339 465 585 668 708 711 698 756 840 821 886 876 726 676 686 710 676 669 669 726 894 1136 1934 2658 2356 2127 1910 1981 1970 1998 1719 1964 2480 2354 2499 2731 2526 2738 2452 2535 2133 2627 2823 2570 2588 2510 2663 2582 2655 2352 1999 1770 1633
0 1 10 56 99 154 240 315 358 447 517 528 645 743 741 821 901 889 865 859 745 703 694 698 779 852 803 688 683 710 730 915 1175 2386 2711 2539 2393 1793 1588 1638 1740 1806 1886 2367 2318 2263 2196 2501 2446 2096 2428 3171 2760 2978 2741 2777 2572 2429 2323 2333 2382 2308 2115
13 41 106 213 317 396 474 531 563 589 521 505 571 674 732 727 809 936 978 917 887 816 798 776 802 756 744 658 731 792 806 702 636 1122 2170 2736 2568 2160 1552 1279 1225 1288 1523 1891 2169 1817 1837 2247 1851 2266 2217 2573 2766 2530 2362 2512 2569 2464 2318 2314 2177 2102 1952
31 131 240 345 403 431 496 385 384 410 476 478 476 503 583 748 801 828 991 907 906 907 926 816 858 800 929 878 806 913 958 953 744 565 1028 2388 2544 2374 1717 1733 1094 918 1073 1250 1856 2008 2144 1666 2077 1807 2301 2314 2381 2202 1970 2036 2077 2303 2189 2792 2082 2733 2209
92 189 230 264 318 319 383 407 503 425 440 464 553 561 594 636 642 677 852 950 959 811 878 912 855 775 845 899 911 908 964 939 675 458 514 1626 2167 2193 1993 2050 2095 1971 1582 1184 1795 1822 1719 1558 1971 2442 2111 2291 2731 2480 2512 2591 2575 2641 2214 2104 2076 1907 1914
215 340 297 215 237 270 354 374 433 469 486 510 518 546 593 649 659 679 692 787 883 889 844 951 941 947 905 906 793 766 957 1030 923 795 830 749 1004 1524 1485 1446 2606 1725 1402 1158 1354 1357 1203 1170 1182 1032 876 1512 2144 2330 2221 2259 2312 2230 2291 2117 1890 1847 1836
202 276 246 228 203 319 379 411 462 498 528 529 555 597 639 576 659 641 667 756 863 802 903 956 1004 992 994 1015 1070 1124 1224 1390 1339 1226 1083 948 825 831 1262 1119 990 1336 1820 1403 1318 891 760 810 812 799 796 829 894 1144 1807 1789 1824 1858 1844 1879 1892 1825 1732
Wind_Speed
17 18 19 20 18 18 19 19 19 19 18 19 19 20 21 23 25 22 18 18 23 27 29 30 30 29 26 21 21 22 18 16 16 14 17 17 22 22 22 22 23 20 22 22 20 20 18 13 12 11 12 12 12 14 14 15 15 15 16 16 14 14 13
16 17 19 20 21 20 20 21 22 21 21 20 20 21 21 23 23 19 16 18 23 27 28 29 30 28 23 17 16 18 18 17 16 17 18 22 24 25 25 22 18 18 20 23 19 17 19 15 12 9 12 13 12 13 14 14 14 14 14 15 15 15 14
16 17 19 20 20 20 20 20 21 22 22 21 20 20 20 20 19 15 15 18 21 23 25 25 26 25 21 19 19 20 19 19 17 16 17 21 26 26 24 19 16 17 21 23 23 19 16 17 13 13 13 14 13 13 12 13 13 12 13 15 14 15 15
18 19 22 25 24 23 23 22 22 23 24 21 20 19 18 17 15 14 13 15 18 20 21 22 23 23 20 17 16 15 14 14 14 14 17 21 22 22 20 20 23 23 20 18 19 18 16 18 14 17 16 15 16 15 13 12 13 12 13 15 14 15 16
22 21 22 23 25 25 25 25 26 25 25 23 20 18 16 15 14 13 13 14 16 17 18 20 21 21 20 17 15 13 12 11 13 11 12 15 18 18 21 25 25 20 16 18 20 22 20 18 21 15 16 17 16 17 15 14 13 13 14 14 14 14 15
24 23 22 24 26 27 28 28 27 27 25 23 21 19 18 17 16 14 12 15 16 17 17 19 20 21 22 21 18 16 14 14 12 12 11 13 13 16 22 23 22 19 18 19 21 18 19 18 17 14 14 17 16 15 15 15 15 15 15 15 15 14 14
27 26 25 26 28 30 30 30 30 29 28 25 22 20 19 19 19 16 13 14 18 18 17 17 18 20 20 21 23 20 17 16 16 17 17 17 15 13 17 20 21 18 18 19 17 18 17 18 18 17 17 16 17 14 16 16 16 17 17 16 16 15 15
29 29 28 28 30 32 32 31 30 28 27 24 23 22 22 20 19 19 16 14 14 18 19 16 16 16 15 16 18 20 20 19 19 22 22 19 15 12 10 16 20 19 17 14 14 16 16 17 22 14 10 12 16 16 16 17 16 16 17 16 16 15 16
33 32 30 29 31 32 33 32 29 26 23 22 21 22 22 21 19 20 20 17 15 15 17 18 18 17 17 17 17 17 17 17 18 21 22 21 19 16 12 9 16 18 16 14 14 15 16 18 21 20 17 17 17 18 17 18 17 17 16 17 17 15 15
37 36 35 33 32 33 33 31 28 26 23 22 21 21 21 22 21 21 18 17 16 16 19 20 23 24 22 21 21 20 16 17 18 18 20 21 19 19 16 10 8 11 13 13 13 14 15 17 19 22 19 18 18 19 18 18 17 16 16 17 17 17 16
38 38 36 36 36 36 36 34 30 27 24 22 21 21 20 20 20 22 22 20 18 15 16 19 20 23 25 25 25 23 18 19 18 18 18 20 18 15 12 13 12 6 7 11 13 14 15 16 19 18 18 19 18 19 19 17 16 15 15 16 17 17 17
41 40 38 38 38 39 38 35 33 31 28 26 24 22 21 20 20 21 22 21 20 18 17 20 19 23 24 26 28 25 21 19 18 20 20 18 16 14 13 13 16 16 10 6 9 12 14 16 19 19 16 18 17 17 18 16 15 15 14 15 16 17 17
44 43 41 40 41 41 40 39 37 35 33 30 28 27 25 23 24 25 26 25 24 23 20 19 20 22 23 26 27 23 18 17 17 18 20 21 19 17 17 17 18 19 16 11 6 7 11 14 16 14 14 16 14 15 15 15 15 16 16 16 16 17 18
46 45 43 42 42 43 42 40 39 38 36 35 32 31 29 28 27 27 27 26 26 25 23 21 21 24 24 27 28 23 20 17 14 15 19 20 19 21 21 21 19 19 16 13 10 7 5 8 11 13 16 16 14 13 14 16 17 17 18 19 19 20 20
44 44 43 42 40 40 41 41 41 40 39 38 36 35 31 30 30 30 29 28 27 26 23 22 20 22 25 28 29 27 22 17 15 18 20 20 21 21 21 21 20 18 16 14 13 10 9 7 7 10 12 13 12 13 15 17 16 17 18 19 20 21 21
42 42 42 42 41 40 39 39 40 40 40 38 38 37 35 32 30 30 30 29 28 28 27 24 22 21 23 25 29 29 29 26 24 23 22 20 18 17 17 19 20 19 17 15 14 12 11 10 9 9 10 11 12 12 15 14 14 15 16 19 21 22 21
42 42 42 41 41 40 40 41 41 41 40 38 37 39 38 35 33 31 31 31 31 30 29 27 25 22 22 24 26 29 27 24 23 21 20 21 19 16 15 15 16 17 17 16 15 14 13 12 11 11 11 11 10 11 13 13 12 16 16 15 16 19 21
44 44 43 42 41 41 41 41 42 42 40 37 36 38 38 37 35 34 33 32 32 31 29 28 27 26 24 24 26 28 28 22 21 21 21 21 20 18 16 14 14 14 14 14 15 14 14 14 13 14 13 12 11 11 12 12 11 18 17 14 14 13 15
43 44 43 42 41 40 39 36 36 38 39 37 35 36 37 37 36 35 35 34 33 31 31 29 28 27 26 25 26 28 30 28 23 20 21 22 20 20 17 16 14 13 13 14 13 13 14 14 14 14 13 12 12 11 12 10 15 20 17 15 15 13 10
nan 40 40 40 38 37 36 33 32 32 34 35 34 34 35 36 35 34 35 36 35 35 33 30 29 28 27 26 26 27 29 30 28 24 21 21 21 21 18 16 14 12 11 11 12 13 13 13 13 13 14 13 12 11 11 11 14 19 17 16 16 15 14
39 38 37 37 36 36 nan nan nan 30 30 32 33 34 34 34 34 32 34 37 38 37 34 32 30 28 28 27 26 27 29 31 32 29 26 24 22 19 18 16 16 15 13 12 12 13 13 14 13 13 13 13 12 11 11 11 15 19 17 16 16 16 15
nan nan nan nan nan nan nan nan nan nan 32 33 33 nan 34 35 35 33 34 36 39 39 38 35 33 31 28 26 27 28 30 31 33 35 33 30 26 22 20 18 16 17 16 14 13 13 13 14 14 14 14 14 13 12 12 12 19 18 18 16 16 17 16
nan nan nan nan nan nan nan nan nan nan nan nan 34 nan 36 37 37 37 37 38 40 40 41 40 38 36 33 30 27 28 30 31 33 33 33 34 28 23 21 19 17 16 18 17 15 13 12 13 15 16 16 16 14 13 13 13 20 21 19 18 17 18 15
nan nan nan nan nan nan nan nan nan nan nan nan 34 35 37 38 40 40 40 41 41 41 42 43 42 39 37 35 32 30 30 31 32 32 29 27 29 27 24 23 24 20 19 19 19 15 14 14 14 15 15 16 16 15 13 13 18 23 21 21 22 19 15
nan nan nan nan nan nan nan nan nan nan nan nan nan nan nan 40 41 41 42 43 43 43 43 43 42 39 37 36 34 32 32 33 34 34 31 27 25 23 22 22 23 23 24 21 20 19 18 16 16 15 16 16 15 14 14 13 16 22 21 21 21 19 14
nan nan nan nan nan nan nan nan nan nan nan nan nan nan 39 41 42 42 43 44 45 45 45 45 43 39 37 36 35 35 35 33 34 34 32 28 25 24 22 22 23 24 23 23 21 21 22 20 19 17 17 18 18 17 16 16 15 19 22 20 20 18 14
nan nan nan nan nan nan nan nan nan nan nan nan nan 36 37 39 40 41 42 43 44 44 45 46 45 42 40 38 37 36 37 36 34 34 34 31 28 25 23 23 22 24 24 23 22 23 22 22 22 20 20 20 20 19 19 18 16 17 23 21 21 20 16
nan nan nan nan nan nan nan nan nan nan nan nan nan 33 35 36 36 38 39 41 41 44 45 46 45 44 42 40 37 37 38 38 36 36 35 33 29 25 22 23 23 23 23 25 23 21 22 24 24 24 23 23 22 21 19 19 18 18 27 25 24 22 21
nan nan nan nan nan nan nan nan nan nan nan 32 32 32 33 33 33 35 37 38 39 43 44 45 45 44 42 40 38 37 38 39 37 37 38 36 32 27 24 23 23 24 25 24 22 21 23 26 28 28 26 24 24 24 23 22 23 20 22 27 25 25 22
nan nan nan nan nan nan nan nan nan nan nan nan 31 32 32 33 32 33 34 34 39 42 43 44 45 45 43 42 40 38 38 40 39 37 39 40 36 32 28 26 24 24 26 26 26 27 25 28 31 31 27 23 23 24 25 25 23 25 23 26 27 25 24
nan nan nan nan nan nan nan nan nan 30 29 30 29 31 32 33 32 31 30 33 37 39 40 42 43 45 44 43 41 39 38 40 39 37 38 41 40 35 33 29 28 25 26 27 27 29 28 29 27 26 25 25 25 25 26 26 26 25 29 26 27 26 24
nan nan nan nan nan nan nan nan 29 28 26 26 27 29 30 31 31 28 29 32 34 35 37 38 40 42 44 44 42 40 38 38 39 38 37 40 40 38 35 33 31 29 29 28 28 30 29 29 30 28 25 26 28 27 26 27 27 27 29 32 27 26 25
nan nan nan nan nan 29 29 28 27 26 25 24 25 27 27 26 27 26 26 27 28 30 32 35 36 37 40 42 42 41 39 38 40 40 39 38 40 38 36 35 33 31 29 29 30 29 28 28 29 29 29 30 29 28 28 27 26 27 29 30 29 26 26
nan nan 26 26 26 27 26 27 26 25 24 24 25 26 26 26 25 25 25 25 26 27 28 29 31 33 36 38 40 41 39 38 37 38 39 38 39 39 37 35 34 32 32 32 31 30 28 28 28 31 31 32 30 29 29 28 27 27 28 31 31 30 28
nan 23 23 23 24 25 26 26 25 25 24 24 24 24 24 23 23 24 25 26 28 28 27 27 27 29 31 34 37 38 38 37 38 38 39 39 38 38 36 35 34 34 34 33 34 32 30 29 30 29 30 30 30 30 29 28 28 28 29 30 33 33 32
nan 20 20 21 23 22 22 22 22 21 20 21 23 22 21 20 20 22 24 25 27 28 27 26 26 26 28 31 34 36 36 37 37 38 39 39 39 38 37 35 34 34 34 35 35 34 32 34 30 31 32 28 30 29 28 27 32 40 36 36 37 34 35
19 19 19 18 18 17 18 18 18 18 18 19 21 20 19 19 18 20 21 23 25 25 25 25 25 25 26 27 30 33 35 36 37 37 38 37 37 37 36 36 36 32 28 29 29 32 32 29 27 27 27 29 29 29 28 28 31 35 38 37 34 34 35
18 17 17 17 16 16 16 18 19 19 19 20 20 19 18 18 18 20 21 22 22 23 24 23 23 23 23 24 27 29 32 33 34 36 36 36 36 35 35 35 34 34 31 26 27 26 25 25 23 24 25 25 26 27 27 26 27 30 32 32 33 33 33
Wind_Direction
302 301 304 309 307 308 311 313 316 318 322 325 326 327 332 334 334 330 327 337 347 349 346 343 336 335 336 321 317 315 293 271 255 244 242 247 244 235 232 233 208 215 230 229 225 232 243 240 217 225 243 241 240 246 245 247 248 248 250 249 246 248 252
314 313 315 316 316 313 312 314 316 317 320 327 334 338 343 345 343 343 344 349 352 353 354 352 344 343 344 337 327 322 313 303 287 268 259 253 248 237 234 229 230 220 218 231 230 229 242 233 229 234 239 241 236 244 248 249 250 252 253 254 252 251 252
316 318 320 321 320 323 323 322 319 315 317 324 332 341 348 352 352 352 348 347 347 349 349 349 345 348 354 352 344 336 330 320 304 283 265 254 250 244 236 230 233 233 226 221 221 219 210 222 225 228 231 233 233 237 239 244 247 251 253 256 255 254 254
311 314 320 322 320 321 323 327 326 321 315 318 327 336 342 345 348 348 348 343 342 344 349 352 350 350 354 352 341 331 324 310 298 285 271 265 261 257 252 239 229 235 236 222 223 229 221 232 213 217 225 226 229 229 227 232 238 244 251 254 251 255 254
307 309 317 321 319 320 319 321 326 326 320 315 322 330 330 328 330 339 344 339 337 339 341 348 348 349 351 348 336 322 308 290 285 288 289 285 278 266 260 247 243 243 235 226 224 226 226 222 213 209 228 221 228 228 224 224 224 233 238 248 245 250 251
306 307 311 317 318 319 319 318 320 327 325 316 314 321 322 321 320 327 337 331 334 330 335 343 348 348 350 347 339 327 313 303 305 313 313 311 304 282 266 257 252 246 229 224 226 224 230 226 235 222 209 230 224 229 232 229 225 229 234 238 239 243 246
305 305 309 312 314 316 316 318 319 326 329 320 311 309 312 314 317 322 330 337 333 337 342 344 346 349 350 344 339 335 328 322 332 342 338 339 333 305 277 266 263 253 236 229 229 227 229 234 227 227 206 209 226 227 236 235 234 232 232 234 234 234 238
302 305 306 308 310 310 312 315 317 322 327 321 310 304 302 304 309 318 328 335 337 334 336 341 339 339 341 341 338 335 332 335 345 347 343 343 333 325 311 273 266 264 252 241 237 232 229 228 246 237 233 215 223 226 231 238 237 238 239 239 239 239 239
298 299 300 302 304 306 306 308 310 314 318 314 301 294 294 299 306 312 324 334 336 336 334 330 328 326 326 328 328 328 332 341 346 346 346 349 347 346 348 297 269 266 261 252 242 237 231 232 228 238 246 234 227 228 230 234 237 236 238 241 245 244 241
291 292 294 295 297 299 300 300 302 303 304 304 298 292 293 298 305 311 318 328 335 339 330 330 325 325 322 321 317 319 334 347 347 341 340 346 351 354 357 354 310 280 266 255 246 241 239 233 237 233 229 236 236 238 235 236 236 238 239 243 245 246 244
288 287 287 288 288 290 290 290 291 295 295 294 290 289 291 297 305 311 316 324 328 332 322 319 318 318 320 319 314 313 335 354 347 332 335 337 347 359 6 14 10 336 280 256 250 249 248 243 242 239 235 236 239 243 243 244 246 245 245 247 248 250 248
284 285 285 284 285 284 284 286 288 288 288 289 287 285 286 288 293 297 300 306 310 316 314 313 316 313 316 318 317 323 346 360 354 341 342 346 354 1 7 5 5 4 350 292 253 250 249 248 244 239 235 234 227 236 246 251 254 255 254 254 255 254 254
282 283 285 285 285 286 287 287 286 285 283 282 279 278 279 277 279 284 289 293 299 306 311 310 310 309 313 315 318 328 354 1 358 346 348 355 2 359 357 0 1 2 359 344 308 262 254 252 253 244 244 245 241 238 243 251 252 253 254 251 250 251 253
278 278 278 281 282 283 285 287 288 287 285 279 277 276 277 279 280 281 284 289 293 297 303 306 307 309 312 314 317 330 1 3 355 351 356 359 0 1 359 356 359 0 356 353 354 340 301 271 264 260 250 246 249 246 241 241 242 243 245 246 244 244 246
272 274 275 275 276 279 282 284 285 286 285 282 277 274 274 278 281 283 284 285 288 291 294 296 301 305 310 313 315 331 354 1 359 351 351 359 6 4 358 352 352 356 356 354 357 355 349 328 294 273 269 264 255 252 248 246 248 250 253 256 254 251 250
267 269 271 272 273 274 276 277 280 281 281 280 277 275 275 276 277 279 279 278 281 285 290 293 294 295 302 308 310 325 342 355 355 347 346 352 1 359 356 351 348 350 353 352 351 349 343 337 333 314 299 295 288 279 270 268 264 262 253 244 255 263 259
268 268 268 267 268 269 271 271 273 274 272 271 273 274 276 275 275 276 276 277 276 279 283 287 289 288 292 297 302 312 324 337 340 336 337 337 345 344 344 347 345 346 348 345 342 340 334 330 330 327 318 315 313 306 295 292 289 292 281 274 260 260 267
266 266 265 264 264 264 265 265 267 267 266 263 266 270 273 273 273 274 274 275 274 275 279 281 286 288 289 292 296 303 310 317 325 327 324 325 331 336 332 330 333 335 336 335 334 329 323 320 321 319 317 315 315 314 310 304 299 296 299 291 285 274 266
267 267 267 266 267 267 266 267 267 266 262 260 261 267 270 270 269 271 273 273 274 275 275 276 279 284 287 290 294 298 304 309 312 317 315 312 319 320 318 319 319 322 323 325 322 318 320 317 317 314 310 309 308 306 309 299 288 294 295 297 293 287 270
nan 269 268 268 270 271 271 272 270 265 258 254 258 265 268 265 265 268 273 275 275 274 273 274 276 280 282 287 291 294 297 302 307 308 304 298 301 306 311 309 306 301 302 305 308 310 310 311 314 309 307 308 305 300 297 298 289 296 294 289 290 288 281
268 267 267 268 267 265 nan nan nan 260 251 249 254 263 263 260 259 265 270 273 274 272 272 272 272 274 277 280 282 286 292 296 298 297 293 288 285 291 302 312 308 297 290 291 297 301 303 301 302 299 298 298 296 292 293 292 298 300 304 300 296 292 286
nan nan nan nan nan nan nan nan nan nan 255 256 259 nan 259 256 257 261 266 270 272 272 271 271 271 272 273 273 278 283 286 289 293 295 294 290 291 297 302 303 304 297 286 283 283 287 290 291 293 295 294 292 291 289 287 283 297 300 301 302 299 296 280
nan nan nan nan nan nan nan nan nan nan nan nan 262 nan 258 257 257 261 265 267 268 269 271 271 271 269 269 270 271 275 278 281 284 285 289 291 290 289 284 286 287 283 281 275 272 278 283 287 287 287 288 288 288 289 284 277 289 298 298 298 301 286 280
nan nan nan nan nan nan nan nan nan nan nan nan 257 259 259 258 259 261 263 263 263 265 268 268 269 268 268 268 270 271 272 272 271 273 276 280 287 288 284 277 275 275 279 282 277 274 272 275 278 281 283 285 286 286 282 277 284 297 299 301 301 298 290
nan nan nan nan nan nan nan nan nan nan nan nan nan nan nan 257 258 260 259 260 261 262 264 264 264 265 265 265 266 266 266 266 266 270 274 280 280 280 278 278 277 275 269 265 268 269 266 268 269 272 274 275 277 282 281 273 275 290 297 300 302 300 293
nan nan nan nan nan nan nan nan nan nan nan nan nan nan 255 257 260 259 258 258 258 259 260 260 260 262 264 265 264 265 265 263 261 265 268 268 269 271 275 275 276 273 271 270 269 270 267 265 265 270 269 272 274 272 276 274 268 276 294 296 298 304 292
nan nan nan nan nan nan nan nan nan nan nan nan nan 258 257 257 257 257 257 256 256 256 257 257 258 261 264 264 264 263 263 263 260 259 260 262 264 262 261 265 268 276 280 279 272 266 266 266 263 264 265 267 272 275 278 276 277 280 292 296 298 301 301
nan nan nan nan nan nan nan nan nan nan nan nan nan 262 263 262 260 259 258 257 255 253 255 256 256 260 262 263 262 262 262 260 256 257 259 260 261 260 260 262 264 267 271 273 271 271 269 265 261 260 261 262 265 268 272 277 285 277 288 296 297 298 304
nan nan nan nan nan nan nan nan nan nan nan 271 269 268 267 264 263 263 262 262 258 256 256 256 257 258 260 261 260 261 261 261 257 256 257 257 257 257 256 255 261 267 268 269 273 271 267 263 259 257 259 262 263 264 266 270 275 286 284 293 297 299 300
nan nan nan nan nan nan nan nan nan nan nan nan 277 276 273 270 266 264 262 260 260 259 257 257 256 257 257 258 259 258 259 260 259 255 255 255 255 255 253 253 255 263 268 267 263 255 253 261 263 258 255 260 262 261 261 264 265 276 284 281 293 294 297
nan nan nan nan nan nan nan nan nan 282 283 284 283 280 279 276 273 268 263 260 259 259 258 255 254 255 255 255 255 255 256 259 260 257 253 254 255 254 253 251 251 256 262 263 263 260 255 253 257 263 263 261 260 258 260 260 262 260 273 282 281 287 289
nan nan nan nan nan nan nan nan 284 284 284 283 280 278 279 279 277 273 268 262 260 259 258 256 254 253 252 252 252 251 252 254 256 258 257 254 255 255 254 251 249 250 255 256 258 260 258 256 258 260 263 265 264 262 259 261 260 260 261 272 277 278 283
nan nan nan nan nan 279 282 281 281 281 279 276 275 275 276 276 276 275 272 268 263 261 259 258 256 253 252 251 250 248 248 249 254 255 257 257 256 256 256 255 251 248 247 252 256 257 256 256 254 257 261 262 264 264 263 261 263 262 260 259 262 263 270
nan nan 278 278 279 280 281 282 282 281 279 278 277 278 278 278 277 274 271 268 266 263 260 261 260 255 252 250 249 248 247 247 248 252 255 257 258 256 254 254 252 249 248 248 253 254 254 254 253 252 254 259 261 262 263 264 266 268 266 264 263 262 263
nan 281 280 279 280 282 285 285 284 283 282 280 278 277 277 277 275 273 270 268 267 266 264 263 262 261 256 253 251 249 247 246 246 250 252 253 255 257 257 254 252 250 247 248 249 253 254 252 254 255 255 255 256 258 261 263 266 270 275 270 269 266 264
nan 280 279 280 282 282 284 285 284 282 281 282 281 279 278 277 276 274 273 270 268 266 266 265 265 263 262 258 253 250 248 246 244 245 248 251 251 252 254 260 265 256 251 246 249 251 248 254 255 254 254 253 255 259 261 261 259 253 267 274 277 272 267
278 277 277 276 279 281 281 281 282 284 284 284 283 285 284 283 281 279 275 272 270 268 267 267 268 268 268 263 256 250 246 244 242 243 246 249 250 249 250 250 261 272 267 259 250 249 248 246 251 250 251 258 254 253 249 247 252 263 262 258 261 263 264
275 280 281 282 283 281 281 283 285 285 285 285 284 283 283 283 282 281 279 277 274 271 269 269 268 269 270 267 259 250 248 246 241 240 243 245 248 249 247 249 248 253 267 271 264 260 257 257 258 259 260 260 264 259 253 254 257 254 262 268 269 267 264